Time,TemperatureF,DewpointF,PressureIn,WindDirection,WindDirectionDegrees,WindSpeedMPH,WindSpeedGustMPH,Humidity,HourlyPrecipIn,Conditions,Clouds,dailyrainin,SoftwareType,DateUTC
2013-02-27 00:01:00,14.0,-3.0,30.25,NNW,338,0.0,-999.0,46,-99.99,,,-99.99,,2013-02-27 07:01:00,
2013-02-27 00:11:00,14.0,-3.0,30.25,NNW,338,0.0,-999.0,46,-99.99,,,-99.99,,2013-02-27 07:11:00,
2013-02-27 00:21:00,14.0,-3.0,30.25,NNW,338,0.0,-999.0,46,-99.99,,,-99.99,,2013-02-27 07:21:00,
2013-02-27 00:31:00,14.0,-3.0,30.26,NNW,338,0.0,-999.0,45,-99.99,,,-99.99,,2013-02-27 07:31:00,
2013-02-27 00:41:00,14.0,-3.0,30.26,NNW,338,0.0,-999.0,45,-99.99,,,-99.99,,2013-02-27 07:41:00,
2013-02-27 00:51:00,12.0,-4.0,30.26,NNW,337,0.0,-999.0,48,-99.99,,,-99.99,,2013-02-27 07:51:00,
2013-02-27 01:01:00,13.0,-4.0,30.27,NNW,337,0.0,-999.0,46,-99.99,,,-99.99,,2013-02-27 08:01:00,
2013-02-27 01:11:00,13.0,-4.0,30.27,NNW,337,0.0,-999.0,46,-99.99,,,-99.99,,2013-02-27 08:11:00,
2013-02-27 01:21:00,12.0,-5.0,30.27,NNW,338,0.0,-999.0,46,-99.99,,,-99.99,,2013-02-27 08:21:00,
2013-02-27 01:31:00,12.0,-4.0,30.29,NNW,338,0.0,-999.0,47,-99.99,,,-99.99,,2013-02-27 08:31:00,
2013-02-27 01:41:00,12.0,-4.0,30.29,NNW,338,0.0,-999.0,47,-99.99,,,-99.99,,2013-02-27 08:41:00,
2013-02-27 01:52:00,11.0,-4.0,30.29,NNW,338,0.0,-999.0,50,-99.99,,,-99.99,,2013-02-27 08:52:00,
2013-02-27 02:01:00,10.0,-4.0,30.29,NNW,337,0.0,-999.0,52,-99.99,,,-99.99,,2013-02-27 09:01:00,
2013-02-27 02:11:00,10.0,-4.0,30.29,NNW,337,0.0,-999.0,52,-99.99,,,-99.99,,2013-02-27 09:11:00,
2013-02-27 02:21:00,10.0,-4.0,30.29,NNW,337,0.0,-999.0,52,-99.99,,,-99.99,,2013-02-27 09:21:00,
2013-02-27 02:32:00,9.0,-5.0,30.29,NNW,338,0.0,-999.0,53,-99.99,,,-99.99,,2013-02-27 09:32:00,
2013-02-27 02:41:00,9.0,-5.0,30.29,NNW,338,0.0,-999.0,53,-99.99,,,-99.99,,2013-02-27 09:41:00,
2013-02-27 02:51:00,9.0,-4.0,30.30,NNW,338,0.0,-999.0,54,-99.99,,,-99.99,,2013-02-27 09:51:00,
2013-02-27 03:01:00,10.0,-4.0,30.30,NNW,338,0.0,-999.0,51,-99.99,,,-99.99,,2013-02-27 10:01:00,
2013-02-27 03:12:00,10.0,-4.0,30.30,NNW,338,0.0,-999.0,51,-99.99,,,-99.99,,2013-02-27 10:12:00,
2013-02-27 03:21:00,9.0,-5.0,30.31,NNW,338,0.0,-999.0,51,-99.99,,,-99.99,,2013-02-27 10:21:00,
2013-02-27 03:32:00,8.0,-6.0,30.31,NNW,337,0.0,-999.0,53,-99.99,,,-99.99,,2013-02-27 10:32:00,
2013-02-27 03:41:00,8.0,-6.0,30.31,NNW,337,0.0,-999.0,53,-99.99,,,-99.99,,2013-02-27 10:41:00,
2013-02-27 03:52:00,8.0,-5.0,30.31,NNW,338,0.0,-999.0,54,-99.99,,,-99.99,,2013-02-27 10:52:00,
2013-02-27 04:01:00,8.0,-6.0,30.31,NNW,338,0.0,-999.0,53,-99.99,,,-99.99,,2013-02-27 11:01:00,
2013-02-27 04:11:00,8.0,-6.0,30.31,NNW,338,0.0,-999.0,53,-99.99,,,-99.99,,2013-02-27 11:11:00,
2013-02-27 04:22:00,8.0,-6.0,30.32,NNW,338,0.0,-999.0,53,-99.99,,,-99.99,,2013-02-27 11:22:00,
2013-02-27 04:31:00,8.0,-6.0,30.32,NNW,338,0.0,-999.0,52,-99.99,,,-99.99,,2013-02-27 11:31:00,
2013-02-27 04:41:00,8.0,-6.0,30.32,NNW,338,0.0,-999.0,52,-99.99,,,-99.99,,2013-02-27 11:41:00,
2013-02-27 04:52:00,8.0,-5.0,30.33,NNW,337,0.0,-999.0,55,-99.99,,,-99.99,,2013-02-27 11:52:00,
2013-02-27 05:01:00,7.0,-6.0,30.33,NNW,337,0.0,-999.0,54,-99.99,,,-99.99,,2013-02-27 12:01:00,
2013-02-27 05:12:00,7.0,-6.0,30.33,NNW,337,0.0,-999.0,54,-99.99,,,-99.99,,2013-02-27 12:12:00,
2013-02-27 05:22:00,8.0,-5.0,30.34,NNW,338,0.0,-999.0,54,-99.99,,,-99.99,,2013-02-27 12:22:00,
2013-02-27 05:32:00,8.0,-6.0,30.34,NNW,338,0.0,-999.0,51,-99.99,,,-99.99,,2013-02-27 12:32:00,
2013-02-27 05:41:00,8.0,-6.0,30.34,NNW,338,0.0,-999.0,51,-99.99,,,-99.99,,2013-02-27 12:41:00,
2013-02-27 05:52:00,7.0,-6.0,30.35,NNW,338,0.0,-999.0,53,-99.99,,,-99.99,,2013-02-27 12:52:00,
2013-02-27 06:02:00,6.0,-7.0,30.36,NNW,337,0.0,-999.0,53,-99.99,,,-99.99,,2013-02-27 13:02:00,
2013-02-27 06:11:00,6.0,-7.0,30.36,NNW,337,0.0,-999.0,53,-99.99,,,-99.99,,2013-02-27 13:11:00,
2013-02-27 06:21:00,6.0,-7.0,30.37,NNW,337,0.0,-999.0,55,-99.99,,,-99.99,,2013-02-27 13:21:00,
2013-02-27 06:31:00,6.0,-6.0,30.37,NNW,338,0.0,-999.0,56,-99.99,,,-99.99,,2013-02-27 13:31:00,
2013-02-27 06:41:00,6.0,-6.0,30.37,NNW,338,0.0,-999.0,56,-99.99,,,-99.99,,2013-02-27 13:41:00,
2013-02-27 06:52:00,6.0,-6.0,30.38,NNW,338,0.0,-999.0,56,-99.99,,,-99.99,,2013-02-27 13:52:00,
2013-02-27 07:02:00,5.0,-7.0,30.39,NNW,338,0.0,-999.0,56,-99.99,,,-99.99,,2013-02-27 14:02:00,
2013-02-27 07:11:00,5.0,-7.0,30.39,NNW,338,0.0,-999.0,56,-99.99,,,-99.99,,2013-02-27 14:11:00,
2013-02-27 07:21:00,6.0,-7.0,30.40,NNW,338,0.0,-999.0,54,-99.99,,,-99.99,,2013-02-27 14:21:00,
2013-02-27 07:31:00,5.0,-8.0,30.40,NNW,337,0.0,-999.0,55,-99.99,,,-99.99,,2013-02-27 14:31:00,
2013-02-27 07:41:00,5.0,-8.0,30.40,NNW,337,0.0,-999.0,55,-99.99,,,-99.99,,2013-02-27 14:41:00,
2013-02-27 07:52:00,6.0,-7.0,30.41,NNW,338,0.0,-999.0,55,-99.99,,,-99.99,,2013-02-27 14:52:00,
2013-02-27 08:02:00,7.0,-6.0,30.42,NNW,338,0.0,-999.0,53,-99.99,,,-99.99,,2013-02-27 15:02:00,
2013-02-27 08:11:00,7.0,-6.0,30.42,NNW,338,0.0,-999.0,53,-99.99,,,-99.99,,2013-02-27 15:11:00,
2013-02-27 08:21:00,11.0,-4.0,30.42,NNW,338,0.0,-999.0,50,-99.99,,,-99.99,,2013-02-27 15:21:00,
2013-02-27 08:32:00,11.0,-5.0,30.43,NNW,338,0.0,-999.0,48,-99.99,,,-99.99,,2013-02-27 15:32:00,
2013-02-27 08:41:00,11.0,-5.0,30.43,NNW,338,0.0,-999.0,48,-99.99,,,-99.99,,2013-02-27 15:41:00,
2013-02-27 08:51:00,11.0,-4.0,30.43,ENE,59,0.0,-999.0,49,-99.99,,,-99.99,,2013-02-27 15:51:00,
2013-02-27 09:01:00,12.0,-4.0,30.44,East,87,0.0,-999.0,48,-99.99,,,-99.99,,2013-02-27 16:01:00,
2013-02-27 09:11:00,12.0,-4.0,30.44,East,87,0.0,-999.0,48,-99.99,,,-99.99,,2013-02-27 16:11:00,
2013-02-27 09:21:00,13.0,-4.0,30.44,East,88,0.0,-999.0,46,-99.99,,,-99.99,,2013-02-27 16:21:00,
2013-02-27 09:32:00,15.0,-3.0,30.43,East,88,0.0,-999.0,44,-99.99,,,-99.99,,2013-02-27 16:32:00,
2013-02-27 09:41:00,15.0,-3.0,30.43,East,88,0.0,-999.0,44,-99.99,,,-99.99,,2013-02-27 16:41:00,
2013-02-27 09:51:00,17.0,-3.0,30.44,ESE,123,1.0,-999.0,40,-99.99,,,-99.99,,2013-02-27 16:51:00,
2013-02-27 10:01:00,20.0,-1.0,30.45,ESE,111,0.0,-999.0,39,-99.99,,,-99.99,,2013-02-27 17:01:00,
2013-02-27 10:11:00,20.0,-1.0,30.45,ESE,111,0.0,-999.0,39,-99.99,,,-99.99,,2013-02-27 17:11:00,
2013-02-27 10:21:00,23.0,0.0,30.45,ESE,113,0.0,-999.0,36,-99.99,,,-99.99,,2013-02-27 17:21:00,
2013-02-27 10:32:00,23.0,-1.0,30.45,South,171,1.0,-999.0,35,-99.99,,,-99.99,,2013-02-27 17:32:00,
2013-02-27 10:41:00,23.0,-1.0,30.45,South,171,1.0,-999.0,35,-99.99,,,-99.99,,2013-02-27 17:41:00,
2013-02-27 10:52:00,24.0,1.0,30.45,SSW,194,3.0,-999.0,36,-99.99,,,-99.99,,2013-02-27 17:52:00,
2013-02-27 11:01:00,25.0,1.0,30.44,South,179,3.0,-999.0,34,-99.99,,,-99.99,,2013-02-27 18:01:00,
2013-02-27 11:10:00,26.0,3.0,30.43,South,179,4.0,-999.0,36,-99.99,,,-99.99,,2013-02-27 18:10:00,
2013-02-27 11:11:00,25.0,1.0,30.44,South,179,3.0,-999.0,34,-99.99,,,-99.99,,2013-02-27 18:11:00,
2013-02-27 11:21:00,25.0,1.0,30.44,South,173,2.0,-999.0,34,-99.99,,,-99.99,,2013-02-27 18:21:00,
2013-02-27 11:31:00,26.0,3.0,30.43,South,179,4.0,-999.0,36,-99.99,,,-99.99,,2013-02-27 18:31:00,
2013-02-27 11:42:00,26.0,3.0,30.43,South,179,4.0,-999.0,36,-99.99,,,-99.99,,2013-02-27 18:42:00,
2013-02-27 11:51:00,26.0,3.0,30.43,South,179,4.0,-999.0,36,-99.99,,,-99.99,,2013-02-27 18:51:00,
2013-02-27 12:01:00,26.0,3.0,30.43,South,179,4.0,-999.0,36,-99.99,,,-99.99,,2013-02-27 19:01:00,
2013-02-27 12:21:00,28.0,5.0,30.41,WSW,242,3.0,-999.0,37,-99.99,,,-99.99,,2013-02-27 19:21:00,
2013-02-27 12:32:00,28.0,3.0,30.41,South,172,2.0,-999.0,34,-99.99,,,-99.99,,2013-02-27 19:32:00,
2013-02-27 12:42:00,28.0,3.0,30.41,South,172,2.0,-999.0,34,-99.99,,,-99.99,,2013-02-27 19:42:00,
2013-02-27 12:51:00,28.0,4.0,30.40,WNW,292,3.0,-999.0,35,-99.99,,,-99.99,,2013-02-27 19:51:00,
2013-02-27 13:01:00,29.0,5.0,30.40,SSW,202,4.0,-999.0,36,-99.99,,,-99.99,,2013-02-27 20:01:00,
2013-02-27 13:11:00,29.0,5.0,30.40,SSW,202,4.0,-999.0,36,-99.99,,,-99.99,,2013-02-27 20:11:00,
2013-02-27 13:21:00,30.0,6.0,30.40,SSW,192,3.0,-999.0,35,-99.99,,,-99.99,,2013-02-27 20:21:00,
2013-02-27 13:31:00,30.0,6.0,30.40,SSW,192,3.0,-999.0,35,-99.99,,,-99.99,,2013-02-27 20:31:00,
2013-02-27 13:41:00,30.0,6.0,30.40,SSW,192,3.0,-999.0,35,-99.99,,,-99.99,,2013-02-27 20:41:00,
2013-02-27 13:52:00,30.0,5.0,30.39,East,101,4.0,-999.0,34,-99.99,,,-99.99,,2013-02-27 20:52:00,
2013-02-27 14:01:00,30.0,5.0,30.39,SSW,211,4.0,-999.0,34,-99.99,,,-99.99,,2013-02-27 21:01:00,
2013-02-27 14:11:00,30.0,5.0,30.39,SSW,211,4.0,-999.0,34,-99.99,,,-99.99,,2013-02-27 21:11:00,
2013-02-27 14:21:00,30.0,3.0,30.38,WNW,290,4.0,-999.0,31,-99.99,,,-99.99,,2013-02-27 21:21:00,
2013-02-27 14:31:00,30.0,6.0,30.38,South,188,4.0,-999.0,35,-99.99,,,-99.99,,2013-02-27 21:31:00,
2013-02-27 14:41:00,30.0,6.0,30.38,South,188,4.0,-999.0,35,-99.99,,,-99.99,,2013-02-27 21:41:00,
2013-02-27 14:51:00,30.0,4.0,30.38,NW,306,4.0,-999.0,32,-99.99,,,-99.99,,2013-02-27 21:51:00,
2013-02-27 15:01:00,31.0,8.0,30.38,WNW,292,4.0,-999.0,37,-99.99,,,-99.99,,2013-02-27 22:01:00,
2013-02-27 15:11:00,31.0,8.0,30.38,WNW,292,4.0,-999.0,37,-99.99,,,-99.99,,2013-02-27 22:11:00,
2013-02-27 15:21:00,30.0,6.0,30.38,WSW,243,4.0,-999.0,35,-99.99,,,-99.99,,2013-02-27 22:21:00,
2013-02-27 15:31:00,30.0,6.0,30.38,WNW,294,4.0,-999.0,35,-99.99,,,-99.99,,2013-02-27 22:31:00,
2013-02-27 15:41:00,30.0,6.0,30.38,WNW,294,4.0,-999.0,35,-99.99,,,-99.99,,2013-02-27 22:41:00,
2013-02-27 15:51:00,30.0,6.0,30.38,WSW,253,4.0,-999.0,35,-99.99,,,-99.99,,2013-02-27 22:51:00,
2013-02-27 16:01:00,31.0,7.0,30.38,South,173,4.0,-999.0,36,-99.99,,,-99.99,,2013-02-27 23:01:00,
2013-02-27 16:11:00,31.0,7.0,30.38,South,173,4.0,-999.0,36,-99.99,,,-99.99,,2013-02-27 23:11:00,
2013-02-27 16:21:00,31.0,6.0,30.38,SW,227,3.0,-999.0,34,-99.99,,,-99.99,,2013-02-27 23:21:00,
2013-02-27 16:31:00,31.0,7.0,30.38,South,172,2.0,-999.0,35,-99.99,,,-99.99,,2013-02-27 23:31:00,
2013-02-27 16:42:00,31.0,7.0,30.38,South,172,2.0,-999.0,35,-99.99,,,-99.99,,2013-02-27 23:42:00,
2013-02-27 16:52:00,30.0,6.0,30.38,West,262,3.0,-999.0,35,-99.99,,,-99.99,,2013-02-27 23:52:00,
2013-02-27 17:01:00,31.0,6.0,30.38,West,276,2.0,-999.0,34,-99.99,,,-99.99,,2013-02-28 00:01:00,
2013-02-27 17:11:00,31.0,6.0,30.38,West,276,2.0,-999.0,34,-99.99,,,-99.99,,2013-02-28 00:11:00,
2013-02-27 17:21:00,29.0,5.0,30.39,WSW,256,2.0,-999.0,35,-99.99,,,-99.99,,2013-02-28 00:21:00,
2013-02-27 17:31:00,27.0,4.0,30.39,SSE,150,2.0,-999.0,36,-99.99,,,-99.99,,2013-02-28 00:31:00,
2013-02-27 17:42:00,27.0,4.0,30.39,SSE,150,2.0,-999.0,36,-99.99,,,-99.99,,2013-02-28 00:42:00,
2013-02-27 17:51:00,26.0,3.0,30.39,SSW,212,1.0,-999.0,37,-99.99,,,-99.99,,2013-02-28 00:51:00,
2013-02-27 18:01:00,26.0,6.0,30.40,South,178,0.0,-999.0,42,-99.99,,,-99.99,,2013-02-28 01:01:00,
2013-02-27 18:11:00,26.0,6.0,30.40,South,178,0.0,-999.0,42,-99.99,,,-99.99,,2013-02-28 01:11:00,
2013-02-27 18:21:00,26.0,5.0,30.40,West,276,1.0,-999.0,40,-99.99,,,-99.99,,2013-02-28 01:21:00,
2013-02-27 18:31:00,24.0,5.0,30.40,West,277,0.0,-999.0,43,-99.99,,,-99.99,,2013-02-28 01:31:00,
2013-02-27 18:41:00,24.0,5.0,30.40,West,277,0.0,-999.0,43,-99.99,,,-99.99,,2013-02-28 01:41:00,
2013-02-27 18:51:00,22.0,5.0,30.40,West,277,0.0,-999.0,47,-99.99,,,-99.99,,2013-02-28 01:51:00,
2013-02-27 19:01:00,21.0,5.0,30.41,West,277,0.0,-999.0,50,-99.99,,,-99.99,,2013-02-28 02:01:00,
2013-02-27 19:11:00,21.0,5.0,30.41,West,277,0.0,-999.0,50,-99.99,,,-99.99,,2013-02-28 02:11:00,
2013-02-27 19:21:00,20.0,5.0,30.41,West,277,0.0,-999.0,52,-99.99,,,-99.99,,2013-02-28 02:21:00,
2013-02-27 19:31:00,20.0,5.0,30.42,West,276,0.0,-999.0,52,-99.99,,,-99.99,,2013-02-28 02:31:00,
2013-02-27 19:41:00,20.0,5.0,30.42,West,276,0.0,-999.0,52,-99.99,,,-99.99,,2013-02-28 02:41:00,
2013-02-27 19:51:00,20.0,5.0,30.42,West,276,0.0,-999.0,52,-99.99,,,-99.99,,2013-02-28 02:51:00,
2013-02-27 20:01:00,19.0,5.0,30.42,West,276,0.0,-999.0,53,-99.99,,,-99.99,,2013-02-28 03:01:00,
2013-02-27 20:11:00,19.0,5.0,30.42,West,276,0.0,-999.0,53,-99.99,,,-99.99,,2013-02-28 03:11:00,
2013-02-27 20:21:00,18.0,4.0,30.42,West,277,0.0,-999.0,53,-99.99,,,-99.99,,2013-02-28 03:21:00,
2013-02-27 20:31:00,18.0,5.0,30.42,West,277,0.0,-999.0,57,-99.99,,,-99.99,,2013-02-28 03:31:00,
2013-02-27 20:41:00,18.0,5.0,30.42,West,277,0.0,-999.0,57,-99.99,,,-99.99,,2013-02-28 03:41:00,
2013-02-27 20:51:00,17.0,4.0,30.42,West,276,0.0,-999.0,57,-99.99,,,-99.99,,2013-02-28 03:51:00,
2013-02-27 21:01:00,16.0,3.0,30.43,West,276,0.0,-999.0,56,-99.99,,,-99.99,,2013-02-28 04:01:00,
2013-02-27 21:11:00,16.0,3.0,30.43,West,276,0.0,-999.0,56,-99.99,,,-99.99,,2013-02-28 04:11:00,
2013-02-27 21:21:00,15.0,2.0,30.44,West,277,0.0,-999.0,56,-99.99,,,-99.99,,2013-02-28 04:21:00,
2013-02-27 21:31:00,15.0,2.0,30.44,West,277,0.0,-999.0,56,-99.99,,,-99.99,,2013-02-28 04:31:00,
2013-02-27 21:41:00,15.0,2.0,30.44,West,277,0.0,-999.0,56,-99.99,,,-99.99,,2013-02-28 04:41:00,
2013-02-27 21:51:00,15.0,3.0,30.44,West,277,0.0,-999.0,58,-99.99,,,-99.99,,2013-02-28 04:51:00,
2013-02-27 22:01:00,15.0,3.0,30.45,West,277,0.0,-999.0,58,-99.99,,,-99.99,,2013-02-28 05:01:00,
2013-02-27 22:11:00,15.0,3.0,30.45,West,277,0.0,-999.0,58,-99.99,,,-99.99,,2013-02-28 05:11:00,
2013-02-27 22:22:00,14.0,3.0,30.44,West,276,0.0,-999.0,61,-99.99,,,-99.99,,2013-02-28 05:22:00,
2013-02-27 22:31:00,14.0,2.0,30.45,West,277,0.0,-999.0,59,-99.99,,,-99.99,,2013-02-28 05:31:00,
2013-02-27 22:42:00,14.0,2.0,30.45,West,277,0.0,-999.0,59,-99.99,,,-99.99,,2013-02-28 05:42:00,
2013-02-27 22:52:00,14.0,2.0,30.45,West,277,0.0,-999.0,59,-99.99,,,-99.99,,2013-02-28 05:52:00,
2013-02-27 23:01:00,13.0,2.0,30.45,West,277,0.0,-999.0,60,-99.99,,,-99.99,,2013-02-28 06:01:00,
2013-02-27 23:11:00,13.0,2.0,30.45,West,277,0.0,-999.0,60,-99.99,,,-99.99,,2013-02-28 06:11:00,
2013-02-27 23:21:00,13.0,2.0,30.45,West,277,0.0,-999.0,60,-99.99,,,-99.99,,2013-02-28 06:21:00,
2013-02-27 23:32:00,14.0,2.0,30.45,West,276,0.0,-999.0,58,-99.99,,,-99.99,,2013-02-28 06:32:00,
2013-02-27 23:41:00,14.0,2.0,30.45,West,276,0.0,-999.0,58,-99.99,,,-99.99,,2013-02-28 06:41:00,
2013-02-27 23:51:00,13.0,2.0,30.44,West,276,0.0,-999.0,61,-99.99,,,-99.99,,2013-02-28 06:51:00,